Dallas/Ft Worth, TX

7:28 PM CDT on October 18, 2017 (GMT -0500)
Dallas-Fort Worth International

Weather History for KDFW - July, 2012

Change the Weather History Date:

Wednesday, July 25, 2012

  Actual Average Record
Temperature  
Mean Temperature 90 °F 86 °F  
Max Temperature 101 °F 97 °F 109 °F (1954)
Min Temperature 79 °F 76 °F 65 °F (1915)
Degree Days  
Heating Degree Days 0 0  
Month to date heating degree days 0 0  
Since 1 June heating degree days 0 0  
Since 1 July heating degree days 0 0  
Cooling Degree Days 25 21  
Month to date cooling degree days 556 504  
Year to date cooling degree days 1828 1417  
Since 1 June cooling degree days 1141 995  
Growing Degree Days 39 (Base 50)    
Moisture  
Dew Point 68 °F    
Average Humidity 54    
Maximum Humidity 79    
Minimum Humidity 29    
Precipitation  
Precipitation 0.00 in 0.05 in 2.99 in (1975)
Month to date precipitation 0.78 1.84  
Year to date precipitation 23.30 21.88  
Sea Level Pressure  
Sea Level Pressure 29.86 in    
Wind  
Wind Speed 15 mph (South)    
Max Wind Speed 23 mph    
Max Gust Speed 30 mph    
Visibility 10 miles    
Events      
T = Trace of Precipitation, MM = Missing Value Source: NWS Daily Summary

Daily Weather History Graph

Daily Weather History Graph

Search for Another Location

Airport or City:

Trip Planner

Search our weather history database for the weather conditions in past years. The results will help you decide how hot, cold, wet, or windy it might be!

Date:

Astronomy

Jul. 25, 2012 Rise Set
Actual Time 6:37 AM CDT 8:31 PM CDT
Civil Twilight 6:09 AM CDT 8:58 PM CDT
Nautical Twilight 5:36 AM CDT 9:32 PM CDT
Astronomical Twilight 5:01 AM CDT 10:07 PM CDT
Moon 1:16 PM CDT (7/25) No Moon Set
Length of Visible Light 14h 48m
Length of Day
13h 54m
Waxing Crescent, 42% of the Moon is Illuminated
Jul 25
Waxing Crescent
Jul 26
First Quarter
Aug 1
Full
Aug 9
Last Quarter
Aug 17
New

Hourly Weather History & Observations

Time (CDT) Temp. Heat Index Dew Point Humidity Pressure Visibility Wind Dir Wind Speed Gust Speed Precip Events Conditions
12:53 AM 86.0 °F 90.1 °F 69.1 °F 57% 29.91 in 10.0 mi South 13.8 mph 23.0 mph N/A   Clear
1:53 AM 84.0 °F 88.4 °F 70.0 °F 63% 29.91 in 10.0 mi South 12.7 mph - N/A   Clear
2:53 AM 84.0 °F 89.0 °F 71.1 °F 65% 29.90 in 10.0 mi South 17.3 mph - N/A   Clear
3:53 AM 82.0 °F 86.3 °F 71.1 °F 69% 29.90 in 10.0 mi South 15.0 mph - N/A   Clear
4:53 AM 81.0 °F 84.9 °F 71.1 °F 72% 29.91 in 10.0 mi South 12.7 mph - N/A   Clear
5:53 AM 81.0 °F 84.9 °F 71.1 °F 72% 29.91 in 10.0 mi South 12.7 mph - N/A   Clear
6:53 AM 78.8 °F - 71.6 °F 78% 29.94 in 10.0 mi South 10.4 mph - N/A   Partly Cloudy
7:53 AM 81.0 °F 85.2 °F 72.0 °F 74% 29.91 in 10.0 mi South 13.8 mph - N/A   Partly Cloudy
8:53 AM 82.9 °F 87.5 °F 71.1 °F 67% 29.92 in 10.0 mi South 15.0 mph - N/A   Scattered Clouds
9:53 AM 87.1 °F 92.0 °F 70.0 °F 57% 29.92 in 10.0 mi SSW 12.7 mph 21.9 mph N/A   Partly Cloudy
10:53 AM 90.0 °F 94.5 °F 69.1 °F 50% 29.91 in 10.0 mi South 15.0 mph 20.7 mph N/A   Partly Cloudy
11:53 AM 93.0 °F 97.9 °F 69.1 °F 45% 29.90 in 10.0 mi South 16.1 mph 28.8 mph N/A   Partly Cloudy
12:53 PM 95.0 °F 99.5 °F 68.0 °F 41% 29.88 in 10.0 mi South 16.1 mph - N/A   Partly Cloudy
1:53 PM 97.0 °F 101.0 °F 66.9 °F 37% 29.87 in 10.0 mi South 15.0 mph 25.3 mph N/A   Scattered Clouds
2:53 PM 98.1 °F 101.8 °F 66.0 °F 35% 29.85 in 10.0 mi South 15.0 mph 25.3 mph N/A   Scattered Clouds
3:53 PM 100.0 °F 101.8 °F 63.0 °F 29% 29.83 in 10.0 mi South 17.3 mph 21.9 mph N/A   Scattered Clouds
4:53 PM 100.0 °F 103.6 °F 64.9 °F 32% 29.81 in 10.0 mi SSE 17.3 mph 21.9 mph N/A   Scattered Clouds
5:53 PM 99.0 °F 100.5 °F 63.0 °F 30% 29.78 in 10.0 mi SSE 15.0 mph 25.3 mph N/A   Partly Cloudy
6:53 PM 97.0 °F 97.8 °F 62.1 °F 31% 29.77 in 10.0 mi South 16.1 mph - N/A   Partly Cloudy
7:53 PM 95.0 °F 97.4 °F 64.9 °F 37% 29.77 in 10.0 mi South 20.7 mph 26.5 mph N/A   Partly Cloudy
8:53 PM 91.9 °F 94.5 °F 66.0 °F 42% 29.78 in 10.0 mi SSE 15.0 mph 25.3 mph N/A   Partly Cloudy
9:53 PM 91.0 °F 93.8 °F 66.0 °F 44% 29.80 in 10.0 mi South 15.0 mph 23.0 mph N/A   Clear
10:53 PM 89.1 °F 92.1 °F 66.9 °F 48% 29.81 in 10.0 mi South 16.1 mph - N/A   Clear
11:53 PM 88.0 °F 91.4 °F 68.0 °F 51% 29.81 in 10.0 mi South 17.3 mph 26.5 mph N/A   Clear